STARLINK-1853 (47140 NORAD) Tracking and Keplerian Element Data

This shows tracking and keplerian element data for the satellite.

Feedback or suggestion? Click here.




ElementValue
Catalog47140
NameSTARLINK-1853
Epoch Orbit182
Epoch Day20.91667824
Epoch Year2021
RAAN76.8895
Inclination53.0552
Eccentricity0.0008649
Argument of Perigee312.6895
Mean Anonmoly209.6112
Mean Motion15.47634279
Decay Rate8.193E-05
L11 47140U 20088U 21020.91667824 .00008193 00000-0 16429-3 0 9998
L22 47140 53.0552 76.8895 0008649 312.6895 209.6112 15.47634279 1822

Live tracking and technical data element details for STARLINK-1853 (NORAD 47140). STARLINK-1853 can be tracked NOW for your location showing map with azimuth and elevation plus other details from your city location.

Track the satellite on the map from your city or location and see movement details for azimuth, elevation, latitude, longitude, range, height, and movement on the map or in text.







IsCatalogInMostPopularTable: catalog: 47140, numindb: 21
Update: records affected: 1



GetName: 47140 STARLINK-1853

Hit Count: updated at: Sat, 23 Jan 2021 18:08:59 GMT